EW8926 Weather Reports


Display with metric or nautical units.
time (UTC)temp
F
wind
direction
speed
MPH
gust
MPH
rain 1hr
in
rain 24hr
in
rain mn
in
humidity
%
barometer
mb
20260902211604 74 325 0.0 2.0 0.00 0.00 0.00 80 1019.0
20260902211104 74 325 0.0 2.0 0.00 0.00 0.00 80 1019.0
20260902210605 74 325 0.0 1.0 0.00 0.00 0.00 80 1018.9
20260902210105 75 325 0.0 0.0 0.00 0.00 0.00 80 1018.9
20260902205604 75 325 0.0 0.0 0.00 0.00 0.00 79 1018.9
20260902204104 75 325 2.0 2.0 0.00 0.00 0.00 79 1018.7
20260902203604 75 325 2.0 2.0 0.00 0.00 0.00 79 1018.7
20260902203103 75 320 1.0 3.0 0.00 0.00 0.00 79 1018.7
20260902202604 76 351 1.0 3.0 0.00 0.00 0.00 79 1018.7
20260902202104 76 353 0.0 2.0 0.00 0.00 0.00 79 1018.5
20260902201604 76 355 0.0 2.0 0.00 0.00 0.00 78 1018.5
20260902201104 76 355 0.0 2.0 0.00 0.00 0.00 78 1018.5
20260902200604 76 355 0.0 1.0 0.00 0.00 0.00 77 1018.5
20260902200104 76 355 2.0 3.0 0.00 0.00 0.00 77 1018.5
20260902195604 76 355 2.0 2.0 0.00 0.00 0.00 76 1018.5
20260902195104 76 271 1.0 3.0 0.00 0.00 0.00 76 1018.4
20260902194604 76 326 1.0 3.0 0.00 0.00 0.00 75 1018.4
20260902194104 77 311 1.0 2.0 0.00 0.00 0.00 74 1018.4
20260902193604 77 311 1.0 2.0 0.00 0.00 0.00 73 1018.3
20260902193103 77 311 0.0 3.0 0.00 0.00 0.00 73 1018.3
20260902192604 77 356 0.0 3.0 0.00 0.00 0.00 72 1018.3
20260902191603 78 2 2.0 2.0 0.00 0.00 0.00 72 1018.2
20260902191104 78 2 2.0 2.0 0.00 0.00 0.00 71 1018.2
20260902190604 78 298 2.0 3.0 0.00 0.00 0.00 70 1018.0
20260902190104 78 322 2.0 3.0 0.00 0.00 0.00 69 1018.0
20260902185604 78 343 2.0 5.0 0.00 0.00 0.00 69 1018.0
20260902184604 79 307 2.0 5.0 0.00 0.00 0.00 67 1017.9
20260902184104 79 328 2.0 3.0 0.00 0.00 0.00 66 1017.9
20260902183604 79 301 2.0 2.0 0.00 0.00 0.00 65 1017.8
20260902183104 79 301 2.0 5.0 0.00 0.00 0.00 65 1017.8
20260902182604 80 308 2.0 5.0 0.00 0.00 0.00 64 1017.8
20260902182103 80 4 2.0 6.0 0.00 0.00 0.00 63 1017.6
20260902181603 80 316 2.0 6.0 0.00 0.00 0.00 62 1017.6
20260902181104 81 323 3.0 5.0 0.00 0.00 0.00 61 1017.6
20260902180603 81 320 3.0 6.0 0.00 0.00 0.00 60 1017.5
20260902180104 81 330 3.0 6.0 0.00 0.00 0.00 59 1017.5
20260902175603 82 325 3.0 7.0 0.00 0.00 0.00 59 1017.5
20260902175104 82 341 3.0 7.0 0.00 0.00 0.00 58 1017.4
20260902174604 82 343 3.0 8.0 0.00 0.00 0.00 57 1017.4
20260902174103 83 327 3.0 6.0 0.00 0.00 0.00 57 1017.4
20260902173104 84 339 3.0 7.0 0.00 0.00 0.00 56 1017.2
20260902172104 84 346 3.0 6.0 0.00 0.00 0.00 55 1017.2
20260902171604 85 333 2.0 6.0 0.00 0.00 0.00 54 1017.2
20260902171104 85 318 3.0 5.0 0.00 0.00 0.00 54 1017.2
20260902170103 86 318 3.0 7.0 0.00 0.00 0.00 52 1017.1
20260902165104 86 308 4.0 6.0 0.00 0.00 0.00 52 1017.1
20260902164104 86 320 3.0 8.0 0.00 0.00 0.00 50 1017.1
20260902163604 87 316 3.0 9.0 0.00 0.00 0.00 49 1017.2
20260902163104 87 314 3.0 8.0 0.00 0.00 0.00 47 1017.2
20260902162604 87 314 3.0 6.0 0.00 0.00 0.00 48 1017.2
20260902161604 88 330 3.0 6.0 0.00 0.00 0.00 48 1017.3
20260902161104 89 318 2.0 7.0 0.00 0.00 0.00 47 1017.3
20260902160605 90 312 2.0 7.0 0.00 0.00 0.00 45 1017.3
20260902160105 91 318 2.0 5.0 0.00 0.00 0.00 44 1017.3
20260902155604 91 140 2.0 3.0 0.00 0.00 0.00 43 1017.3
20260902155105 91 234 2.0 5.0 0.00 0.00 0.00 43 1017.3
20260902154605 91 234 2.0 2.0 0.00 0.00 0.00 43 1017.3
20260902153604 91 310 2.0 5.0 0.00 0.00 0.00 41 1017.4
20260902153103 91 324 2.0 5.0 0.00 0.00 0.00 41 1017.4
20260902152604 91 309 2.0 5.0 0.00 0.00 0.00 41 1017.4
20260902152104 91 137 2.0 3.0 0.00 0.00 0.00 41 1017.5
20260902151603 90 118 2.0 5.0 0.00 0.00 0.00 41 1017.5
20260902151104 90 140 2.0 3.0 0.00 0.00 0.00 42 1017.5
20260902150104 91 138 2.0 5.0 0.00 0.00 0.00 42 1017.6
20260902145604 91 162 2.0 7.0 0.00 0.00 0.00 41 1017.6
20260902145104 91 251 2.0 6.0 0.00 0.00 0.00 41 1017.6
20260902144104 92 167 2.0 6.0 0.00 0.00 0.00 40 1017.6
20260902143605 92 296 2.0 5.0 0.00 0.00 0.00 41 1017.7
20260902143104 92 169 2.0 3.0 0.00 0.00 0.00 41 1017.7
20260902142103 92 90 2.0 3.0 0.00 0.00 0.00 40 1017.8
20260902141104 91 88 2.0 3.0 0.00 0.00 0.00 41 1017.8
20260902140604 91 194 2.0 5.0 0.00 0.00 0.00 42 1018.0
20260902140104 90 121 2.0 5.0 0.00 0.00 0.00 43 1018.0
20260902135604 90 241 2.0 7.0 0.00 0.00 0.00 43 1018.0
20260902135104 91 143 2.0 7.0 0.00 0.00 0.00 43 1018.3
20260902134103 91 139 2.0 5.0 0.00 0.00 0.00 44 1018.3
20260902133604 90 186 2.0 5.0 0.00 0.00 0.00 45 1018.4
20260902133105 90 185 2.0 6.0 0.00 0.00 0.00 45 1018.4
20260902132603 90 150 2.0 5.0 0.00 0.00 0.00 46 1018.4
20260902132104 89 276 2.0 3.0 0.00 0.00 0.00 46 1018.6
20260902131604 89 8 2.0 5.0 0.00 0.00 0.00 46 1018.6
20260902130604 89 134 2.0 5.0 0.00 0.00 0.00 46 1018.7
20260902130103 89 315 2.0 5.0 0.00 0.00 0.00 46 1018.7
20260902125104 89 179 2.0 5.0 0.00 0.00 0.00 46 1018.8
20260902124606 89 161 2.0 5.0 0.00 0.00 0.00 46 1018.8
20260902124104 89 217 2.0 5.0 0.00 0.00 0.00 47 1018.8
20260902123604 89 292 2.0 5.0 0.00 0.00 0.00 47 1018.9
20260902123104 90 151 2.0 6.0 0.00 0.00 0.00 46 1018.9
20260902122604 90 150 2.0 5.0 0.00 0.00 0.00 45 1018.9
20260902121104 88 158 2.0 5.0 0.00 0.00 0.00 48 1019.1
20260902120104 88 84 2.0 5.0 0.00 0.00 0.00 49 1019.3
20260902115104 87 303 2.0 5.0 0.00 0.00 0.00 50 1019.5
20260902114604 87 4 2.0 5.0 0.00 0.00 0.00 49 1019.5
20260902114105 87 211 2.0 6.0 0.00 0.00 0.00 50 1019.5
20260902113604 87 156 2.0 6.0 0.00 0.00 0.00 51 1019.7
20260902113104 87 131 3.0 5.0 0.00 0.00 0.00 49 1019.7
20260902112104 87 245 2.0 7.0 0.00 0.00 0.00 50 1019.8
20260902111604 86 154 2.0 7.0 0.00 0.00 0.00 51 1019.8
20260902110604 87 320 2.0 5.0 0.00 0.00 0.00 49 1019.9
20260902110106 87 136 2.0 6.0 0.00 0.00 0.00 49 1019.9
20260902105604 87 156 2.0 6.0 0.00 0.00 0.00 49 1019.9
20260902105104 86 135 2.0 5.0 0.00 0.00 0.00 49 1020.0
20260902104604 86 182 2.0 5.0 0.00 0.00 0.00 52 1020.0
20260902102104 85 247 2.0 3.0 0.00 0.00 0.00 51 1020.3
20260902101603 85 142 2.0 3.0 0.00 0.00 0.00 51 1020.3
20260902101104 85 148 2.0 2.0 0.00 0.00 0.00 50 1020.3
20260902100604 85 148 2.0 5.0 0.00 0.00 0.00 52 1020.3
20260902100104 85 294 2.0 5.0 0.00 0.00 0.00 52 1020.3
20260902095604 85 236 2.0 5.0 0.00 0.00 0.00 53 1020.3
20260902095104 85 236 2.0 5.0 0.00 0.00 0.00 54 1020.5
20260902094604 85 139 2.0 6.0 0.00 0.00 0.00 53 1020.5
20260902094104 84 131 2.0 3.0 0.00 0.00 0.00 56 1020.5
20260902093603 84 314 2.0 5.0 0.00 0.00 0.00 55 1020.6
20260902093103 83 176 2.0 3.0 0.00 0.00 0.00 57 1020.6
20260902092603 83 309 2.0 3.0 0.00 0.00 0.00 58 1020.6
20260902092103 83 339 2.0 5.0 0.00 0.00 0.00 59 1020.6
20260902091604 83 293 2.0 6.0 0.00 0.00 0.00 58 1020.6
20260902091104 82 312 2.0 5.0 0.00 0.00 0.00 59 1020.6
20260902090104 81 327 2.0 5.0 0.00 0.00 0.00 59 1020.6
20260902085604 82 124 2.0 3.0 0.00 0.00 0.00 59 1020.6
20260902085104 82 137 2.0 5.0 0.00 0.00 0.00 60 1020.7
20260902084603 81 6 2.0 3.0 0.00 0.00 0.00 63 1020.7
20260902083603 81 118 2.0 5.0 0.00 0.00 0.00 62 1020.6
20260902083104 81 67 2.0 5.0 0.00 0.00 0.00 64 1020.6
20260902082604 80 66 2.0 2.0 0.00 0.00 0.00 65 1020.6
20260902082103 80 131 2.0 3.0 0.00 0.00 0.00 65 1020.5
20260902081604 80 116 2.0 6.0 0.00 0.00 0.00 65 1020.5
20260902081104 80 133 2.0 5.0 0.00 0.00 0.00 65 1020.5
20260902080603 79 23 2.0 2.0 0.00 0.00 0.00 67 1020.5
20260902080104 78 5 2.0 3.0 0.00 0.00 0.00 69 1020.5
20260902075604 78 136 2.0 5.0 0.00 0.00 0.00 70 1020.5
20260902075104 77 140 2.0 5.0 0.00 0.00 0.00 70 1020.4
20260902074604 77 58 2.0 3.0 0.00 0.00 0.00 72 1020.4
20260902074104 76 137 2.0 3.0 0.00 0.00 0.00 73 1020.4
20260902073604 76 137 2.0 6.0 0.00 0.00 0.00 73 1020.4
20260902073104 76 137 2.0 5.0 0.00 0.00 0.00 73 1020.4
20260902072604 76 138 2.0 5.0 0.00 0.00 0.00 75 1020.4
20260902072104 76 138 2.0 5.0 0.00 0.00 0.00 74 1020.3
20260902070604 75 139 2.0 5.0 0.00 0.00 0.00 76 1020.1
20260902070104 75 145 2.0 5.0 0.00 0.00 0.00 75 1020.1
20260902065604 74 148 2.0 2.0 0.00 0.00 0.00 77 1020.1
20260902064604 74 139 1.0 2.0 0.00 0.00 0.00 79 1020.1
20260902063604 72 336 1.0 2.0 0.00 0.00 0.00 83 1020.1
20260902063104 71 313 1.0 2.0 0.00 0.00 0.00 85 1020.1
20260902062604 70 124 1.0 2.0 0.00 0.00 0.00 86 1020.1
20260902062104 70 124 1.0 2.0 0.00 0.00 0.00 86 1020.0
20260902061604 70 160 1.0 3.0 0.00 0.00 0.00 87 1020.0
20260902060604 69 285 0.0 3.0 0.00 0.00 0.00 90 1020.1
20260902060104 69 170 1.0 2.0 0.00 0.00 0.00 92 1020.1
20260902055104 69 170 0.0 2.0 0.00 0.00 0.00 92 1019.8
20260902054604 68 169 0.0 3.0 0.00 0.00 0.00 92 1019.8
20260902054104 68 169 1.0 0.0 0.00 0.00 0.00 92 1019.8
20260902053604 68 169 1.0 0.0 0.00 0.00 0.00 92 1019.6
20260902052604 68 169 0.0 3.0 0.00 0.00 0.00 92 1019.6
20260902052104 68 21 0.0 3.0 0.00 0.00 0.00 92 1019.5
20260902051103 68 347 0.0 0.0 0.00 0.00 0.00 93 1019.5
20260902050604 68 347 0.0 0.0 0.00 0.00 0.00 92 1019.4
20260902050104 68 347 0.0 0.0 0.00 0.00 0.00 92 1019.4
20260902045103 68 347 0.0 2.0 0.00 0.00 0.00 92 1019.3
20260902044604 68 347 0.0 0.0 0.00 0.00 0.00 91 1019.3
20260902044104 68 347 0.0 0.0 0.00 0.00 0.00 91 1019.3
20260902043604 68 347 0.0 2.0 0.00 0.00 0.00 91 1019.2
20260902042604 68 347 1.0 2.0 0.00 0.00 0.00 91 1019.2
20260902042104 68 347 1.0 2.0 0.00 0.00 0.00 91 1019.2
20260902041604 68 347 1.0 3.0 0.00 0.00 0.00 91 1019.2
20260902040604 69 344 0.0 2.0 0.00 0.00 0.00 91 1019.3
20260902040104 69 344 0.0 2.0 0.00 0.00 0.00 91 1019.3
20260902035604 69 344 0.0 2.0 0.00 0.00 0.00 91 1019.3
20260902035104 69 344 1.0 1.0 0.00 0.00 0.00 91 1019.3
20260902034604 69 344 1.0 2.0 0.00 0.00 0.00 90 1019.3
20260902033104 69 344 2.0 2.0 0.00 0.00 0.00 90 1019.3
20260902032604 69 344 2.0 2.0 0.00 0.00 0.00 90 1019.3
20260902032104 69 344 1.0 2.0 0.00 0.00 0.00 89 1019.4
20260902031603 69 344 1.0 3.0 0.00 0.00 0.00 89 1019.4
20260902031104 70 20 1.0 3.0 0.00 0.00 0.00 89 1019.4
20260902030605 70 129 1.0 2.0 0.00 0.00 0.00 89 1019.4
20260902030104 70 129 1.0 2.0 0.00 0.00 0.00 88 1019.4
20260902025103 70 129 1.0 2.0 0.00 0.00 0.00 87 1019.4
20260902024603 70 129 1.0 2.0 0.00 0.00 0.00 87 1019.4
20260902024104 71 129 0.0 2.0 0.00 0.00 0.00 86 1019.4
20260902023104 71 129 0.0 2.0 0.00 0.00 0.00 86 1019.4
20260902022604 71 129 0.0 0.0 0.00 0.00 0.00 85 1019.4
20260902021603 71 129 0.0 0.0 0.00 0.00 0.00 85 1019.4
20260902020104 71 129 0.0 2.0 0.00 0.00 0.00 86 1019.2
20260902015603 71 129 0.0 2.0 0.00 0.00 0.00 87 1019.2
20260902014604 72 129 1.0 2.0 0.00 0.00 0.00 86 1019.1
20260902014104 72 129 0.0 2.0 0.00 0.00 0.00 86 1019.1
20260902013604 72 128 0.0 3.0 0.00 0.00 0.00 86 1019.1
20260902012603 72 64 0.0 0.0 0.00 0.00 0.00 86 1019.1
20260902012104 72 64 0.0 2.0 0.00 0.00 0.00 86 1019.1
20260902011603 72 8 0.0 2.0 0.00 0.00 0.00 86 1019.1
20260902011104 72 8 0.0 2.0 0.00 0.00 0.00 86 1019.1
20260902010105 72 4 0.0 0.0 0.00 0.00 0.00 87 1019.1
20260902005604 72 4 0.0 0.0 0.00 0.00 0.00 86 1019.1
20260902004603 72 4 0.0 1.0 0.00 0.00 0.00 87 1019.1
20260902004104 72 4 0.0 0.0 0.00 0.00 0.00 86 1019.1
20260902003603 72 4 0.0 0.0 0.00 0.00 0.00 86 1019.1
20260902002604 72 4 0.0 0.0 0.00 0.00 0.00 86 1019.1
20260902002103 72 4 0.0 0.0 0.00 0.00 0.00 86 1019.1
20260902001603 72 4 0.0 2.0 0.00 0.00 0.00 85 1019.1
20260902001104 72 4 0.0 0.0 0.00 0.00 0.00 85 1019.1
20260902000604 72 4 0.0 0.0 0.00 0.00 0.00 85 1019.1
20260901235604 72 4 0.0 0.0 0.00 0.00 0.00 83 1019.1
20260901235104 73 4 0.0 0.0 0.00 0.00 0.00 83 1019.1
20260901234604 73 4 0.0 0.0 0.00 0.00 0.00 83 1019.1
20260901234104 73 4 0.0 0.0 0.00 0.00 0.00 83 1019.1
20260901233604 73 4 0.0 1.0 0.00 0.00 0.00 83 1019.2
20260901233104 73 4 0.0 0.0 0.00 0.00 0.00 83 1019.2
20260901232604 73 4 0.0 0.0 0.00 0.00 0.00 82 1019.2
20260901232103 73 4 0.0 0.0 0.00 0.00 0.00 82 1019.2
20260901230604 74 4 0.0 0.0 0.00 0.00 0.00 81 1019.2
20260901230104 74 4 0.0 0.0 0.00 0.00 0.00 80 1019.2
20260901225604 74 4 0.0 1.0 0.00 0.00 0.00 80 1019.2
20260901225104 74 4 0.0 2.0 0.00 0.00 0.00 80 1019.2
20260901224604 74 4 0.0 2.0 0.00 0.00 0.00 80 1019.2
20260901223604 74 4 0.0 0.0 0.00 0.00 0.00 80 1019.1
20260901223104 74 4 0.0 1.0 0.00 0.00 0.00 80 1019.1
20260901222604 74 4 0.0 2.0 0.00 0.00 0.00 80 1019.1
20260901222104 74 4 0.0 2.0 0.00 0.00 0.00 80 1019.1
20260901221604 74 4 0.0 3.0 0.00 0.00 0.00 80 1019.1
20260901221104 74 4 0.0 2.0 0.00 0.00 0.00 80 1019.1
20260901215603 74 4 0.0 0.0 0.00 0.00 0.00 79 1019.1
20260901215104 74 4 0.0 0.0 0.00 0.00 0.00 79 1019.0
20260901214604 74 4 0.0 0.0 0.00 0.00 0.00 79 1019.0
20260901213604 74 4 0.0 2.0 0.00 0.00 0.00 79 1018.9